Location: Enborne
(51.3833°N, 1.3667°W)
Time: 08:58:56
(UTC+00:00)

Cosmos 1844 Rocket - Visible Passes

Search period start: 17 January 2021 00:00
Search period end: 27 January 2021 00:00
Orbit: 824 x 845 km, 71.0° (Epoch: 16 January)

Date Brightness Start Highest point End Pass type
(mag) Time Alt. Az. Time Alt. Az. Time Alt. Az.
17 Jan 4.2 04:15:58 29° SE 04:15:58 29° SE 04:18:42 10° SE visible
17 Jan 3.8 05:57:41 24° WSW 05:57:41 24° WSW 06:01:02 10° SSW visible
17 Jan 3.1 19:02:43 10° S 19:07:13 43° SE 19:07:13 43° SE visible
17 Jan 4.8 20:46:51 10° WSW 20:48:56 21° WSW 20:48:56 21° WSW visible
18 Jan 4.8 04:00:06 18° SE 04:00:06 18° SE 04:01:25 10° SE visible
18 Jan 4.2 05:41:50 20° SW 05:41:50 20° SW 05:44:01 10° SSW visible
18 Jan 3.0 18:45:36 10° S 18:50:56 44° ESE 18:51:22 43° E visible
18 Jan 4.2 20:29:31 10° WSW 20:33:06 33° W 20:33:06 33° W visible
19 Jan 4.6 05:26:03 14° SSW 05:26:03 14° SSW 05:26:58 10° SSW visible
19 Jan 3.1 18:28:29 10° S 18:33:44 40° ESE 18:35:27 32° ENE visible
19 Jan 3.7 20:12:11 10° WSW 20:17:10 44° WNW 20:17:10 44° WNW visible
20 Jan 3.2 18:11:23 10° S 18:16:32 37° ESE 18:19:24 23° ENE visible
20 Jan 3.5 19:54:53 10° SW 20:00:20 47° NW 20:01:07 45° NNW visible
20 Jan 5.5 21:42:18 10° WNW 21:42:50 11° WNW 21:42:50 11° WNW visible
21 Jan 3.3 17:54:18 10° S 17:59:21 34° ESE 18:03:17 16° NE visible
21 Jan 3.4 19:37:34 10° SW 19:43:05 51° NW 19:44:59 36° N visible
21 Jan 5.3 21:24:50 10° WNW 21:26:41 15° NW 21:26:41 15° NW visible
22 Jan 3.5 17:37:13 10° SSE 17:42:10 32° ESE 17:47:03 10° NE visible
22 Jan 3.3 19:20:17 10° SW 19:25:50 54° NW 19:28:45 27° NNE visible
22 Jan 5.1 21:07:22 10° WNW 21:10:26 17° NW 21:10:26 17° NW visible
23 Jan 3.6 17:20:11 10° SSE 17:25:00 29° ESE 17:29:48 10° NE visible
23 Jan 3.2 19:02:59 10° SW 19:08:34 58° NW 19:12:26 20° NNE visible
23 Jan 4.9 20:49:54 10° WNW 20:53:43 18° NNW 20:54:07 18° NNW visible
24 Jan 3.1 18:45:43 10° SW 18:51:19 62° NW 18:56:02 15° NNE visible
24 Jan 4.8 20:32:27 10° WNW 20:36:23 19° NNW 20:37:43 18° NNW visible
25 Jan 3.0 18:28:26 10° SW 18:34:04 67° WNW 18:39:34 11° NNE visible
25 Jan 4.8 20:15:01 10° W 20:19:04 20° NNW 20:21:15 16° N visible
26 Jan 2.9 18:11:10 10° SW 18:16:50 72° WNW 18:22:30 10° NNE visible
26 Jan 4.8 19:57:34 10° W 20:01:45 21° NW 20:04:43 14° N visible
